This is the latest recevied weather packets stored in our database for station/object N5ZP. If no packets are shown the sender has not sent any weather packets the latest 10 day(s).
| Time | Temp. | Humidity | Pressure | Rain* | Wind** | Luminosity | Snow |
|---|---|---|---|---|---|---|---|
| 1777345501 | 26.67° C | 79% | 1007.2 hPa | 0 mm | - | 0 W/m² | - |
| 1777345197 | 27.22° C | 78% | 1007.1 hPa | 0 mm | - | 0 W/m² | - |
| 1777344894 | 27.22° C | 78% | 1007.1 hPa | 0 mm | - | 0 W/m² | - |
| 1777344590 | 27.22° C | 79% | 1007.1 hPa | 0 mm | - | 0 W/m² | - |
| 1777344287 | 27.22° C | 79% | 1006.8 hPa | 0 mm | - | 0 W/m² | - |
| 1777343984 | 27.22° C | 79% | 1006.7 hPa | 0 mm | - | 0 W/m² | - |
| 1777343682 | 27.22° C | 79% | 1006.5 hPa | 0 mm | - | 0 W/m² | - |
| 1777343379 | 27.22° C | 79% | 1006.4 hPa | 0 mm | - | 0 W/m² | - |
| 1777343078 | 27.22° C | 78% | 1006.1 hPa | 0 mm | - | 0 W/m² | - |
| 1777342773 | 27.22° C | 78% | 1006 hPa | 0 mm | - | 0 W/m² | - |
| 1777342471 | 26.67° C | 78% | 1006 hPa | 0 mm | - | 0 W/m² | - |
| 1777342168 | 26.67° C | 78% | 1005.9 hPa | 0 mm | - | 0 W/m² | - |
| 1777341864 | 26.67° C | 77% | 1005.7 hPa | 0 mm | - | 0 W/m² | - |
| 1777341560 | 26.67° C | 76% | 1005.7 hPa | 0 mm | - | 0 W/m² | - |
| 1777341257 | 26.67° C | 76% | 1005.7 hPa | 0 mm | - | 0 W/m² | - |
| 1777340953 | 26.11° C | 74% | 1005.4 hPa | 0 mm | - | 0 W/m² | - |
| 1777340652 | 25.56° C | 72% | 1005.4 hPa | 0 mm | - | 0 W/m² | - |
| 1777340349 | 25° C | 73% | 1005.5 hPa | 0 mm | - | 0 W/m² | - |
| 1777340045 | 24.44° C | 76% | 1005.1 hPa | 0 mm | - | 0 W/m² | - |
| 1777339743 | 23.89° C | 77% | 1005.1 hPa | 0 mm | - | 0 W/m² | - |
| 1777339441 | 24.44° C | 83% | 1005 hPa | 0 mm | - | 0 W/m² | - |
| 1777339138 | 25° C | 81% | 1004.7 hPa | 0 mm | - | 1 W/m² | - |
| 1777338836 | 25.56° C | 80% | 1004.6 hPa | 0 mm | - | 2 W/m² | - |
| 1777338533 | 25.56° C | 76% | 1004.9 hPa | 0 mm | - | 3 W/m² | - |
| 1777338230 | 26.11° C | 77% | 1004.7 hPa | 0 mm | - | 5 W/m² | - |
* Rain latest hour (hover to see other rain measurements)
** Current wind speed in m/s (hover to see current wind gust speed)